Miscellaneous Local Product
Issued by NWS North Platte, NE

Home | Current Version | Previous Version | Text Only | Print | Product List | Glossary On
Versions: 1 2 3 4 5 6 7 8 9 10 11 12 13 14 15 16 17 18 19 20 21 22 23 24 25 26 27 28 29 30 31 32 33 34 35 36 37 38 39 40 41 42 43 44 45 46 47 48 49 50
000
AXUS43 KLBF 281310
MISLBF


WESTERN AND NORTH CENTRAL NEBRASKA HOURLY WEATHER ROUNDUP
NATIONAL WEATHER SERVICE NORTH PLATTE NE
800 AM CDT SUN SEP 28 2014

***STATIONS NOT REPORTING VARIABLES SUCH AS SKY/WEATHER OR
PRESSURE ARE PROVIDED BY THE NEBRASKA DEPARTMENT OF
ROADS...RAWS...AND APRS NETWORKS...AND ARE NOT UNDER
NATIONAL WEATHER SERVICE QUALITY CONTROL***

...OBSERVATIONS IN AND NEAR THE EASTERN PANHANDLE OF NEBRASKA...

CITY           SKY/WX    TMP DP  RH WIND       PRES   REMARKS
PINE RIDGE     MOCLDY    52  48  86 NE6       30.11R
CHADRON        MOCLDY    53  48  83 NE10      30.10R
ALLIANCE       CLEAR     48  46  93 N7        30.08R
SIDNEY         CLEAR     49  46  90 E6        30.06R
WHITECLAY        N/A     49  45  85 NE5         N/A
RUSHVILLE        N/A     50  49  93 N14         N/A
LISCO            N/A     54  50  86 NE3         N/A
BIG SPRINGS      N/A     53  50  91 CALM        N/A
$$

...OBSERVATIONS IN NORTH CENTRAL NEBRASKA...

CITY           SKY/WX    TMP DP  RH WIND       PRES   REMARKS
VALENTINE      PTCLDY    57  54  89 NW6       30.06R
THEDFORD       CLEAR     54  53  96 CALM      30.07S FOG
AINSWORTH      CLEAR     57  54  89 S6        30.05R
O`NEILL        CLEAR     59  57  92 SE8       30.07R
ORD            CLEAR     57  54  89 SE5       30.06R
BROKEN BOW     CLEAR     53  51  93 CALM      30.07R
SPRINGVIEW       N/A     58  54  88 CALM        N/A
ROSE             N/A     61  59  93 E7          N/A
NEWPORT          N/A     59  57  91 S3          N/A
SARGENT          N/A     57  55  92 CALM        N/A
COMSTOCK         N/A     59  57  94 CALM        N/A
CHAMBERS         N/A     58  54  88 CALM        N/A
$$

...OBSERVATIONS IN SOUTHWEST NEBRASKA AND FAR NORTHEAST COLORADO...

CITY           SKY/WX    TMP DP  RH WIND       PRES   REMARKS
WRAY           FAIR      56  52  89 E5        30.03R
IMPERIAL       CLEAR     54  52  93 SE7       30.04R
OGALLALA       CLEAR     53  52  95 E5        30.04S FOG
NORTH PLATTE   CLEAR     54  52  93 E9        30.06R
MCCOOK         CLEAR     58  54  86 E6        30.05R
LEXINGTON      CLEAR     56  53  91 SE3       30.07R
PAXTON           N/A     57  54  89 CALM        N/A
SUTHERLAND       N/A     53  50  92 E3          N/A
BRADY            N/A     54  51  90 CALM        N/A
GOTHENBURG       N/A     56  51  83 E3          N/A
CALLAWAY         N/A     55  53  94 S8          N/A
$$

...SOME WEATHER OBSERVATIONS FROM AROUND THE REGION...

CITY           SKY/WX    TMP DP  RH WIND       PRES   REMARKS
DENVER         PTCLDY    51  46  83 NW10      30.04R
LARAMIE        MOCLDY    43  40  89 CALM      30.14S
CHEYENNE       MOCLDY    50  47  89 N17G28    30.09F
SCOTTSBLUFF    CLEAR     50  48  93 NE8       30.06R
RAPID CITY     CLOUDY    53  46  77 N21G30    30.13R
PIERRE         CLEAR     57  54  89 SE5       30.00R
WINNER         FAIR      63  56  78 W6        30.05R
SIOUX FALLS    PTCLDY    60  55  83 SE6       30.11R
OMAHA          PTCLDY    59  55  87 SE3       30.13R
GRAND ISLAND   PTCLDY    61  55  81 S10       30.08R
KANSAS CITY    PTCLDY    60  56  86 CALM      30.15R FOG
WICHITA        PTCLDY    62  56  80 SE5       30.11R
HAYS           PTCLDY    63  52  67 S9        30.08R
LIBERAL        CLOUDY    61  54  77 S12       30.10S
GOODLAND       CLEAR     57  55  93 SE13      30.03S
$$



USA.gov is the U.S. government's official web portal to all federal, state and local government web resources and services.